Weather History for KLLJ - February, 2013

Change the Weather History Date:

Friday, February 8, 2013

  Actual Average Record
Temperature  
Mean Temperature 27 °F 22 °F  
Max Temperature 37 °F 33 °F 60 °F (1898)
Min Temperature 16 °F 12 °F -22 °F (1929)
Degree Days  
Heating Degree Days 38 43  
Month to date heating degree days 307 347  
Since 1 July heating degree days 4935 5269  
Cooling Degree Days 0 0  
Month to date cooling degree days 0 0  
Year to date cooling degree days 0 0  
Moisture  
Dew Point 16 °F    
Average Humidity 64    
Maximum Humidity 80    
Minimum Humidity 47    
Precipitation  
Precipitation 0.00 in 0.03 in 0.52 in (1960)
Month to date precipitation 0.00 0.19  
Year to date precipitation 0.21 0.70  
Sea Level Pressure  
Sea Level Pressure 29.92 in    
Wind  
Wind Speed 5 mph (North)    
Max Wind Speed 15 mph    
Max Gust Speed 20 mph    
Visibility 10 miles    
Events      
T = Trace of Precipitation, MM = Missing Value Source: NWS Daily Summary

Daily Weather History Graph

Daily Weather History Graph

Search for Another Location

Airport or City:

Trip Planner

Search our weather history database for the weather conditions in past years. The results will help you decide how hot, cold, wet, or windy it might be!

Date:

Astronomy

Feb. 08, 2013 Rise Set
Actual Time 7:46 AM MST 5:56 PM MST
Civil Twilight 7:15 AM MST 6:26 PM MST
Nautical Twilight 6:41 AM MST 7:01 PM MST
Astronomical Twilight 6:07 AM MST 7:35 PM MST
Moon 6:19 AM MST (2/8) 4:33 PM MST (2/8)
Length of Visible Light 11h 10m
Length of Day
10h 10m
Waning Crescent, 3% of the Moon is Illuminated
Feb 8
Waning Crescent
Feb 10
New
Feb 17
First Quarter
Feb 25
Full
Mar 4
Last Quarter

Hourly Weather History & Observations

Time (MST) Temp. Windchill Dew Point Humidity Pressure Visibility Wind Dir Wind Speed Gust Speed Precip Events Conditions
12:55 AM 21.0 °F - 15.1 °F 78% 29.98 in 10.0 mi Calm Calm - N/A   Partly Cloudy
1:55 AM 21.0 °F - 15.1 °F 78% 29.97 in 10.0 mi Calm Calm - N/A   Overcast
2:55 AM 21.9 °F 15.7 °F 16.0 °F 78% 29.96 in 10.0 mi SSW 4.6 mph - N/A   Overcast
5:55 AM 16.0 °F 10.4 °F 10.9 °F 81% 29.98 in 10.0 mi WNW 3.5 mph - N/A   Clear
6:55 AM 18.0 °F 11.1 °F 12.0 °F 78% 29.97 in 10.0 mi SE 4.6 mph - N/A   Overcast
7:55 AM 19.9 °F - 14.0 °F 78% 29.97 in 10.0 mi Calm Calm - N/A   Mostly Cloudy
8:55 AM 19.9 °F 13.4 °F 14.0 °F 78% 29.99 in 10.0 mi NNW 4.6 mph - N/A   Overcast
9:55 AM 23.0 °F - 16.0 °F 74% 29.99 in 10.0 mi Calm Calm - N/A   Overcast
10:55 AM 25.0 °F - 18.0 °F 75% 29.97 in 10.0 mi Calm Calm - N/A   Overcast
11:55 AM 28.9 °F 25.2 °F 18.0 °F 64% 29.94 in 10.0 mi NE 3.5 mph - N/A   Mostly Cloudy
12:55 PM 34.0 °F 31.0 °F 18.0 °F 52% 29.88 in 10.0 mi Variable 3.5 mph - N/A   Clear
1:55 PM 35.1 °F 30.1 °F 18.0 °F 50% 29.86 in 10.0 mi Variable 5.8 mph - N/A   Clear
2:55 PM 35.1 °F 27.4 °F 18.0 °F 50% 29.84 in 10.0 mi NNE 10.4 mph - N/A   Overcast
3:55 PM 36.0 °F 29.0 °F 18.0 °F 48% 29.84 in 10.0 mi North 9.2 mph - N/A   Overcast
4:55 PM 35.1 °F 30.1 °F 19.0 °F 52% 29.85 in 10.0 mi North 5.8 mph - N/A   Overcast
5:55 PM 30.9 °F 25.2 °F 18.0 °F 59% 29.89 in 10.0 mi North 5.8 mph - N/A   Overcast
6:55 PM 30.0 °F 21.7 °F 19.0 °F 64% 29.90 in 10.0 mi NNW 9.2 mph - N/A   Overcast
7:55 PM 30.0 °F 23.2 °F 17.1 °F 59% 29.90 in 10.0 mi North 6.9 mph - N/A   Clear
8:55 PM 28.9 °F 19.8 °F 17.1 °F 61% 29.90 in 10.0 mi NNW 10.4 mph - N/A   Partly Cloudy
9:55 PM 28.0 °F 20.8 °F 16.0 °F 61% 29.91 in 10.0 mi North 6.9 mph - N/A   Mostly Cloudy
10:55 PM 27.0 °F 20.5 °F 17.1 °F 66% 29.91 in 10.0 mi NW 5.8 mph - N/A   Mostly Cloudy
11:55 PM 27.0 °F 18.7 °F 15.1 °F 61% 29.90 in 10.0 mi NW 8.1 mph - N/A   Partly Cloudy